Time,TemperatureF,DewpointF,PressureIn,WindDirection,WindDirectionDegrees,WindSpeedMPH,WindSpeedGustMPH,Humidity,HourlyPrecipIn,Conditions,Clouds,dailyrainin,SolarRadiationWatts/m^2,SoftwareType,DateUTC
2013-09-15 00:04:00,51.6,46.0,30.13,WNW,286,0.0,-999.0,80,-99.99,,,0.00,0,weatherlink.com 1.10,2013-09-15 04:04:00,
2013-09-15 00:19:00,51.1,45.0,30.13,WNW,286,0.0,-999.0,80,-99.99,,,0.00,0,weatherlink.com 1.10,2013-09-15 04:19:00,
2013-09-15 00:34:00,50.6,45.0,30.12,WNW,286,0.0,-999.0,81,-99.99,,,0.00,0,weatherlink.com 1.10,2013-09-15 04:34:00,
2013-09-15 00:50:00,50.1,45.0,30.12,WNW,286,0.0,-999.0,83,-99.99,,,0.00,0,weatherlink.com 1.10,2013-09-15 04:50:00,
2013-09-15 01:05:00,49.4,45.0,30.13,WNW,286,0.0,-999.0,84,-99.99,,,0.00,0,weatherlink.com 1.10,2013-09-15 05:05:00,
2013-09-15 01:20:00,48.8,45.0,30.14,WNW,286,0.0,-999.0,85,-99.99,,,0.00,0,weatherlink.com 1.10,2013-09-15 05:20:00,
2013-09-15 01:35:00,48.4,45.0,30.14,WNW,286,0.0,-999.0,87,-99.99,,,0.00,0,weatherlink.com 1.10,2013-09-15 05:35:00,
2013-09-15 01:50:00,48.1,45.0,30.14,WNW,286,0.0,-999.0,88,-99.99,,,0.00,0,weatherlink.com 1.10,2013-09-15 05:50:00,
2013-09-15 02:05:00,47.8,45.0,30.14,WNW,286,0.0,-999.0,88,-99.99,,,0.00,0,weatherlink.com 1.10,2013-09-15 06:05:00,
2013-09-15 02:20:00,47.4,44.0,30.14,WNW,286,0.0,-999.0,89,-99.99,,,0.00,0,weatherlink.com 1.10,2013-09-15 06:20:00,
2013-09-15 02:35:00,47.3,44.0,30.14,WNW,286,0.0,-999.0,89,-99.99,,,0.00,0,weatherlink.com 1.10,2013-09-15 06:35:00,
2013-09-15 02:50:00,46.9,44.0,30.14,WNW,286,0.0,-999.0,90,-99.99,,,0.00,0,weatherlink.com 1.10,2013-09-15 06:50:00,
2013-09-15 03:05:00,46.7,44.0,30.14,WNW,286,0.0,-999.0,90,-99.99,,,0.00,0,weatherlink.com 1.10,2013-09-15 07:05:00,
2013-09-15 03:20:00,46.4,44.0,30.14,WNW,286,0.0,-999.0,91,-99.99,,,0.00,0,weatherlink.com 1.10,2013-09-15 07:20:00,
2013-09-15 03:35:00,46.1,44.0,30.15,WNW,286,0.0,-999.0,91,-99.99,,,0.00,0,weatherlink.com 1.10,2013-09-15 07:35:00,
2013-09-15 03:49:00,46.3,44.0,30.15,WNW,286,0.0,-999.0,92,-99.99,,,0.00,0,weatherlink.com 1.10,2013-09-15 07:49:00,
2013-09-15 04:04:00,46.4,44.0,30.15,WNW,286,0.0,-999.0,91,-99.99,,,0.00,0,weatherlink.com 1.10,2013-09-15 08:04:00,
2013-09-15 04:20:00,46.4,44.0,30.15,WNW,286,0.0,-999.0,91,-99.99,,,0.00,0,weatherlink.com 1.10,2013-09-15 08:20:00,
2013-09-15 04:35:00,47.0,44.0,30.16,WNW,286,0.0,-999.0,90,-99.99,,,0.00,0,weatherlink.com 1.10,2013-09-15 08:35:00,
2013-09-15 04:50:00,47.4,44.0,30.16,WNW,286,0.0,-999.0,88,-99.99,,,0.00,0,weatherlink.com 1.10,2013-09-15 08:50:00,
2013-09-15 05:05:00,47.8,44.0,30.16,WNW,286,2.0,-999.0,87,-99.99,,,0.00,0,weatherlink.com 1.10,2013-09-15 09:05:00,
2013-09-15 05:20:00,48.1,44.0,30.16,WNW,286,1.0,-999.0,86,-99.99,,,0.00,0,weatherlink.com 1.10,2013-09-15 09:20:00,
2013-09-15 05:35:00,48.3,44.0,30.16,WNW,286,0.0,-999.0,86,-99.99,,,0.00,0,weatherlink.com 1.10,2013-09-15 09:35:00,
2013-09-15 05:50:00,48.0,44.0,30.17,WNW,286,0.0,-999.0,86,-99.99,,,0.00,0,weatherlink.com 1.10,2013-09-15 09:50:00,
2013-09-15 06:05:00,47.9,44.0,30.17,WNW,286,0.0,-999.0,86,-99.99,,,0.00,0,weatherlink.com 1.10,2013-09-15 10:05:00,
2013-09-15 06:20:00,48.0,44.0,30.17,WNW,286,0.0,-999.0,86,-99.99,,,0.00,0,weatherlink.com 1.10,2013-09-15 10:20:00,
2013-09-15 06:35:00,48.0,44.0,30.18,WNW,286,0.0,-999.0,86,-99.99,,,0.00,5,weatherlink.com 1.10,2013-09-15 10:35:00,
2013-09-15 06:50:00,47.6,44.0,30.18,WNW,286,0.0,-999.0,86,-99.99,,,0.00,9,weatherlink.com 1.10,2013-09-15 10:50:00,
2013-09-15 07:05:00,46.9,43.0,30.19,WNW,286,0.0,-999.0,87,-99.99,,,0.00,14,weatherlink.com 1.10,2013-09-15 11:05:00,
2013-09-15 07:20:00,46.8,44.0,30.19,WNW,286,0.0,-999.0,89,-99.99,,,0.00,25,weatherlink.com 1.10,2013-09-15 11:20:00,
2013-09-15 07:35:00,47.6,45.0,30.19,WNW,286,0.0,-999.0,89,-99.99,,,0.00,32,weatherlink.com 1.10,2013-09-15 11:35:00,
2013-09-15 07:50:00,49.0,45.0,30.20,WNW,286,0.0,-999.0,87,-99.99,,,0.00,33,weatherlink.com 1.10,2013-09-15 11:50:00,
2013-09-15 08:06:00,50.3,45.0,30.20,WNW,286,1.0,-999.0,83,-99.99,,,0.00,30,weatherlink.com 1.10,2013-09-15 12:06:00,
2013-09-15 08:21:00,51.1,45.0,30.20,WNW,286,0.0,-999.0,81,-99.99,,,0.00,33,weatherlink.com 1.10,2013-09-15 12:21:00,
2013-09-15 08:36:00,52.1,46.0,30.21,WNW,288,1.0,-999.0,79,-99.99,,,0.00,39,weatherlink.com 1.10,2013-09-15 12:36:00,
2013-09-15 08:51:00,53.3,47.0,30.21,WNW,289,1.0,-999.0,78,-99.99,,,0.00,56,weatherlink.com 1.10,2013-09-15 12:51:00,
2013-09-15 09:06:00,54.9,47.0,30.21,NW,304,3.0,-999.0,74,-99.99,,,0.00,40,weatherlink.com 1.10,2013-09-15 13:06:00,
2013-09-15 09:21:00,56.6,48.0,30.21,NW,320,3.0,-999.0,72,-99.99,,,0.00,46,weatherlink.com 1.10,2013-09-15 13:21:00,
2013-09-15 09:36:00,58.5,48.0,30.22,WNW,300,4.0,-999.0,69,-99.99,,,0.00,468,weatherlink.com 1.10,2013-09-15 13:36:00,
2013-09-15 09:51:00,60.0,49.0,30.22,NW,316,0.0,-999.0,66,-99.99,,,0.00,517,weatherlink.com 1.10,2013-09-15 13:51:00,
2013-09-15 10:06:00,61.5,48.0,30.22,NW,316,3.0,-999.0,62,-99.99,,,0.00,592,weatherlink.com 1.10,2013-09-15 14:06:00,
2013-09-15 10:21:00,62.7,50.0,30.21,SW,225,0.0,-999.0,63,-99.99,,,0.00,489,weatherlink.com 1.10,2013-09-15 14:21:00,
2013-09-15 10:36:00,63.8,49.0,30.21,WNW,292,0.0,-999.0,60,-99.99,,,0.00,566,weatherlink.com 1.10,2013-09-15 14:36:00,
2013-09-15 10:51:00,64.5,50.0,30.21,NW,304,0.0,-999.0,60,-99.99,,,0.00,624,weatherlink.com 1.10,2013-09-15 14:51:00,
2013-09-15 11:06:00,65.1,50.0,30.20,SW,225,1.0,-999.0,58,-99.99,,,0.00,527,weatherlink.com 1.10,2013-09-15 15:06:00,
2013-09-15 11:21:00,65.8,50.0,30.20,NW,312,0.0,-999.0,57,-99.99,,,0.00,550,weatherlink.com 1.10,2013-09-15 15:21:00,
2013-09-15 11:36:00,65.6,50.0,30.20,NW,323,2.0,-999.0,58,-99.99,,,0.00,640,weatherlink.com 1.10,2013-09-15 15:36:00,
2013-09-15 11:51:00,67.0,50.0,30.19,SW,217,2.0,-999.0,55,-99.99,,,0.00,786,weatherlink.com 1.10,2013-09-15 15:51:00,
2013-09-15 12:06:00,68.3,49.0,30.19,SSW,197,2.0,-999.0,51,-99.99,,,0.00,751,weatherlink.com 1.10,2013-09-15 16:06:00,
2013-09-15 12:21:00,68.2,48.0,30.18,NW,309,0.0,-999.0,49,-99.99,,,0.00,800,weatherlink.com 1.10,2013-09-15 16:21:00,
2013-09-15 12:36:00,69.4,47.0,30.18,WNW,283,2.0,-999.0,45,-99.99,,,0.00,786,weatherlink.com 1.10,2013-09-15 16:36:00,
2013-09-15 12:51:00,70.4,48.0,30.17,WNW,300,7.0,-999.0,45,-99.99,,,0.00,858,weatherlink.com 1.10,2013-09-15 16:51:00,
2013-09-15 13:06:00,70.6,49.0,30.17,West,272,1.0,-999.0,46,-99.99,,,0.00,610,weatherlink.com 1.10,2013-09-15 17:06:00,
2013-09-15 13:21:00,71.1,47.0,30.16,NW,317,0.0,-999.0,42,-99.99,,,0.00,666,weatherlink.com 1.10,2013-09-15 17:21:00,
2013-09-15 13:36:00,70.6,47.0,30.15,NW,306,0.0,-999.0,43,-99.99,,,0.00,751,weatherlink.com 1.10,2013-09-15 17:36:00,
2013-09-15 13:51:00,71.1,46.0,30.15,NNW,331,3.0,-999.0,41,-99.99,,,0.00,738,weatherlink.com 1.10,2013-09-15 17:51:00,
2013-09-15 14:06:00,72.0,49.0,30.14,WSW,240,2.0,-999.0,44,-99.99,,,0.00,819,weatherlink.com 1.10,2013-09-15 18:06:00,
2013-09-15 14:21:00,72.5,48.0,30.14,South,180,4.0,-999.0,42,-99.99,,,0.00,726,weatherlink.com 1.10,2013-09-15 18:21:00,
2013-09-15 14:36:00,72.7,48.0,30.14,WNW,289,0.0,-999.0,42,-99.99,,,0.00,570,weatherlink.com 1.10,2013-09-15 18:36:00,
2013-09-15 14:51:00,72.2,48.0,30.13,SSW,204,0.0,-999.0,43,-99.99,,,0.00,715,weatherlink.com 1.10,2013-09-15 18:51:00,
2013-09-15 15:07:00,72.3,47.0,30.13,WNW,286,1.0,-999.0,41,-99.99,,,0.00,550,weatherlink.com 1.10,2013-09-15 19:07:00,
2013-09-15 15:22:00,72.2,48.0,30.12,SSW,202,0.0,-999.0,43,-99.99,,,0.00,369,weatherlink.com 1.10,2013-09-15 19:22:00,
2013-09-15 15:37:00,72.2,46.0,30.11,SW,218,0.0,-999.0,40,-99.99,,,0.00,610,weatherlink.com 1.10,2013-09-15 19:37:00,
2013-09-15 15:52:00,73.3,48.0,30.11,WNW,302,1.0,-999.0,41,-99.99,,,0.00,570,weatherlink.com 1.10,2013-09-15 19:52:00,
2013-09-15 16:07:00,73.0,48.0,30.10,SSW,202,1.0,-999.0,42,-99.99,,,0.00,446,weatherlink.com 1.10,2013-09-15 20:07:00,
2013-09-15 16:22:00,72.6,48.0,30.09,NW,318,0.0,-999.0,42,-99.99,,,0.00,461,weatherlink.com 1.10,2013-09-15 20:22:00,
2013-09-15 16:37:00,72.1,49.0,30.09,SW,214,3.0,-999.0,44,-99.99,,,0.00,155,weatherlink.com 1.10,2013-09-15 20:37:00,
2013-09-15 16:52:00,71.6,48.0,30.09,WNW,296,4.0,-999.0,44,-99.99,,,0.00,84,weatherlink.com 1.10,2013-09-15 20:52:00,
2013-09-15 17:07:00,71.6,49.0,30.09,SW,224,1.0,-999.0,45,-99.99,,,0.00,107,weatherlink.com 1.10,2013-09-15 21:07:00,
2013-09-15 17:22:00,71.4,50.0,30.08,SW,218,0.0,-999.0,47,-99.99,,,0.00,93,weatherlink.com 1.10,2013-09-15 21:22:00,
2013-09-15 17:37:00,71.3,51.0,30.08,SSW,198,0.0,-999.0,49,-99.99,,,0.00,62,weatherlink.com 1.10,2013-09-15 21:37:00,
2013-09-15 17:52:00,70.8,50.0,30.08,SSW,196,0.0,-999.0,48,-99.99,,,0.00,62,weatherlink.com 1.10,2013-09-15 21:52:00,
2013-09-15 18:07:00,70.3,51.0,30.08,SSW,196,0.0,-999.0,50,-99.99,,,0.00,69,weatherlink.com 1.10,2013-09-15 22:07:00,
2013-09-15 18:22:00,70.0,50.0,30.08,SSW,196,0.0,-999.0,50,-99.99,,,0.00,42,weatherlink.com 1.10,2013-09-15 22:22:00,
2013-09-15 18:37:00,69.5,50.0,30.07,SSW,196,0.0,-999.0,51,-99.99,,,0.00,32,weatherlink.com 1.10,2013-09-15 22:37:00,
2013-09-15 18:52:00,68.8,50.0,30.07,SSW,196,0.0,-999.0,51,-99.99,,,0.00,11,weatherlink.com 1.10,2013-09-15 22:52:00,
2013-09-15 19:07:00,68.1,50.0,30.07,SSW,196,0.0,-999.0,53,-99.99,,,0.00,0,weatherlink.com 1.10,2013-09-15 23:07:00,
2013-09-15 19:22:00,67.3,50.0,30.08,SSW,196,0.0,-999.0,55,-99.99,,,0.00,0,weatherlink.com 1.10,2013-09-15 23:22:00,
2013-09-15 19:37:00,66.5,51.0,30.08,SSW,196,0.0,-999.0,58,-99.99,,,0.00,0,weatherlink.com 1.10,2013-09-15 23:37:00,
2013-09-15 19:52:00,65.5,51.0,30.08,SSW,196,0.0,-999.0,60,-99.99,,,0.00,0,weatherlink.com 1.10,2013-09-15 23:52:00,
2013-09-15 20:07:00,64.5,51.0,30.08,SSW,196,0.0,-999.0,62,-99.99,,,0.00,0,weatherlink.com 1.10,2013-09-16 00:07:00,
2013-09-15 20:22:00,63.6,52.0,30.08,SSW,196,0.0,-999.0,65,-99.99,,,0.00,0,weatherlink.com 1.10,2013-09-16 00:22:00,
2013-09-15 20:37:00,62.9,52.0,30.08,SSW,196,0.0,-999.0,67,-99.99,,,0.00,0,weatherlink.com 1.10,2013-09-16 00:37:00,
2013-09-15 20:52:00,62.3,52.0,30.08,SSW,196,0.0,-999.0,68,-99.99,,,0.00,0,weatherlink.com 1.10,2013-09-16 00:52:00,
2013-09-15 21:07:00,62.2,52.0,30.08,SSW,196,0.0,-999.0,69,-99.99,,,0.00,0,weatherlink.com 1.10,2013-09-16 01:07:00,
2013-09-15 21:22:00,62.3,52.0,30.08,SSW,196,0.0,-999.0,69,-99.99,,,0.00,0,weatherlink.com 1.10,2013-09-16 01:22:00,
2013-09-15 21:37:00,62.1,52.0,30.08,SSW,196,0.0,-999.0,70,-99.99,,,0.00,0,weatherlink.com 1.10,2013-09-16 01:37:00,
2013-09-15 21:52:00,61.8,52.0,30.08,SSW,196,0.0,-999.0,71,-99.99,,,0.00,0,weatherlink.com 1.10,2013-09-16 01:52:00,
2013-09-15 22:07:00,61.7,52.0,30.09,SSW,196,1.0,-999.0,71,-99.99,,,0.00,0,weatherlink.com 1.10,2013-09-16 02:07:00,
2013-09-15 22:22:00,62.4,53.0,30.09,South,189,3.0,-999.0,71,-99.99,,,0.00,0,weatherlink.com 1.10,2013-09-16 02:22:00,
2013-09-15 22:37:00,62.7,53.0,30.09,South,191,3.0,-999.0,71,-99.99,,,0.00,0,weatherlink.com 1.10,2013-09-16 02:37:00,
2013-09-15 22:52:00,62.8,54.0,30.09,SW,219,0.0,-999.0,72,-99.99,,,0.00,0,weatherlink.com 1.10,2013-09-16 02:52:00,
2013-09-15 23:07:00,62.6,53.0,30.09,SSW,213,0.0,-999.0,72,-99.99,,,0.00,0,weatherlink.com 1.10,2013-09-16 03:07:00,
2013-09-15 23:22:00,62.3,54.0,30.09,SSW,213,0.0,-999.0,73,-99.99,,,0.00,0,weatherlink.com 1.10,2013-09-16 03:22:00,
2013-09-15 23:37:00,62.0,54.0,30.09,SW,214,0.0,-999.0,75,-99.99,,,0.00,0,weatherlink.com 1.10,2013-09-16 03:37:00,
2013-09-15 23:52:00,61.8,54.0,30.08,SW,214,0.0,-999.0,75,-99.99,,,0.00,0,weatherlink.com 1.10,2013-09-16 03:52:00,